WZZ2EX LGTS-LHBP

Flight info

Callsign WZZ2EX
Flight time 1h 22m
Altitude 36000
Route ODIKO UN128 RUGAS DCT SIN DCT RAXAD DCT VAGEN DCT PARAK DCT KEZAL
Aircraft A321/M-SDE1E2E3FGIJ1J4RWXY/LB1

Departure

Time 2026-05-04 16:12
Airport Thessaloniki Macedonia International Airport (LGTS)

Arrival

Time 2026-05-04 17:35
Airport Budapest Liszt Ferenc International Airport (LHBP)
Time Latitude Longitude Altitude Speed Heading
2026-05-04 15:56 40.52280 22.97622 29 ft 0 kts 45°
2026-05-04 16:03 40.52273 22.97612 28 ft 4 kts 49°
2026-05-04 16:03 40.52258 22.97584 28 ft 4 kts 71°
2026-05-04 16:04 40.52255 22.97551 27 ft 4 kts 112°
2026-05-04 16:04 40.52264 22.97532 26 ft 2 kts 135°
2026-05-04 16:07 40.52245 22.97557 28 ft 5 kts 135°
2026-05-04 16:08 40.52216 22.97595 28 ft 7 kts 135°
2026-05-04 16:08 40.52082 22.97743 29 ft 10 kts 136°
2026-05-04 16:09 40.51991 22.97899 29 ft 12 kts 105°
2026-05-04 16:09 40.51949 22.98126 29 ft 14 kts 103°
2026-05-04 16:10 40.51899 22.98389 29 ft 16 kts 104°
2026-05-04 16:11 40.51721 22.98681 29 ft 17 kts 206°
2026-05-04 16:11 40.51700 22.98541 28 ft 18 kts 283°
2026-05-04 16:12 40.52174 22.96050 54 ft 173 kts 282°
2026-05-04 16:12 40.53151 22.91565 1969 ft 172 kts 285°
2026-05-04 16:13 40.53874 22.88227 2243 ft 205 kts 286°
2026-05-04 16:13 40.54712 22.84310 2486 ft 241 kts 286°
2026-05-04 16:14 40.55876 22.80069 3208 ft 251 kts 308°
2026-05-04 16:14 40.58874 22.77914 4583 ft 255 kts 347°
2026-05-04 16:15 40.64132 22.76398 6818 ft 263 kts 348°
2026-05-04 16:16 40.67746 22.75347 8250 ft 269 kts 348°
2026-05-04 16:16 40.73322 22.73719 10350 ft 280 kts 348°
2026-05-04 16:17 40.77406 22.72529 10672 ft 323 kts 348°
2026-05-04 16:18 40.83457 22.70757 12138 ft 340 kts 349°
2026-05-04 16:18 40.85783 22.70077 12732 ft 345 kts 349°
2026-05-04 16:19 40.92938 22.67969 14467 ft 357 kts 349°
2026-05-04 16:19 40.97830 22.66525 15649 ft 362 kts 349°
2026-05-04 16:20 41.05308 22.64321 17367 ft 372 kts 349°
2026-05-04 16:20 41.10400 22.62820 18474 ft 378 kts 349°
2026-05-04 16:21 41.18179 22.60524 19867 ft 388 kts 349°
2026-05-04 16:22 41.23501 22.58943 20856 ft 395 kts 349°
2026-05-04 16:22 41.31674 22.56524 22177 ft 407 kts 349°
2026-05-04 16:23 41.40039 22.54026 23444 ft 417 kts 348°
2026-05-04 16:24 41.51556 22.50581 24854 ft 429 kts 349°
2026-05-04 16:25 41.57417 22.48825 25545 ft 434 kts 348°
2026-05-04 16:26 41.69355 22.45241 26874 ft 444 kts 348°
2026-05-04 16:26 41.78398 22.42522 28067 ft 446 kts 348°
2026-05-04 16:27 41.84494 22.40669 28631 ft 452 kts 348°
2026-05-04 16:28 41.93762 22.37859 29556 ft 458 kts 348°
2026-05-04 16:28 42.03127 22.34836 30495 ft 463 kts 345°
2026-05-04 16:29 42.15238 22.30135 32506 ft 443 kts 345°
2026-05-04 16:30 42.24002 22.26830 33809 ft 433 kts 346°
2026-05-04 16:31 42.29793 22.24670 34542 ft 428 kts 346°
2026-05-04 16:31 42.38368 22.21352 35366 ft 426 kts 345°
2026-05-04 16:32 42.46906 22.17934 36066 ft 426 kts 345°
2026-05-04 16:33 42.58243 22.13449 36112 ft 425 kts 345°
2026-05-04 16:34 42.66720 22.10085 36114 ft 421 kts 345°
2026-05-04 16:35 42.83249 22.01928 36119 ft 422 kts 340°
2026-05-04 16:36 42.91416 21.97481 36118 ft 423 kts 340°
2026-05-04 16:37 42.99624 21.92999 36118 ft 424 kts 339°
2026-05-04 16:38 43.10579 21.87009 36108 ft 424 kts 339°
2026-05-04 16:39 43.24259 21.79504 36103 ft 423 kts 339°
2026-05-04 16:40 43.35192 21.73444 36099 ft 424 kts 339°
2026-05-04 16:41 43.48852 21.65862 36110 ft 424 kts 339°
2026-05-04 16:43 43.62545 21.58225 36095 ft 424 kts 339°
2026-05-04 16:43 43.70765 21.53629 36114 ft 424 kts 339°
2026-05-04 16:45 43.87163 21.44408 36112 ft 425 kts 339°
2026-05-04 16:46 44.00813 21.36706 36123 ft 424 kts 339°
2026-05-04 16:47 44.11734 21.30480 36119 ft 424 kts 339°
2026-05-04 16:48 44.22647 21.24265 36101 ft 424 kts 339°
2026-05-04 16:49 44.33565 21.18020 36103 ft 424 kts 339°
2026-05-04 16:50 44.44482 21.11735 36106 ft 425 kts 339°
2026-05-04 16:51 44.52678 21.07003 36105 ft 425 kts 339°
2026-05-04 16:52 44.63568 21.00709 36111 ft 424 kts 339°
2026-05-04 16:53 44.71750 20.95959 36112 ft 424 kts 339°
2026-05-04 16:54 44.82625 20.89617 36105 ft 423 kts 338°
2026-05-04 16:55 44.98915 20.80064 36111 ft 422 kts 338°
2026-05-04 16:56 45.12468 20.72071 36097 ft 422 kts 338°
2026-05-04 16:57 45.20579 20.67286 36107 ft 422 kts 338°
2026-05-04 16:58 45.31413 20.60832 36113 ft 422 kts 338°
2026-05-04 17:00 45.47652 20.51153 36099 ft 423 kts 338°
2026-05-04 17:01 45.61211 20.43001 36105 ft 423 kts 338°
2026-05-04 17:02 45.72063 20.36450 36087 ft 423 kts 338°
2026-05-04 17:03 45.80222 20.31521 36090 ft 424 kts 338°
2026-05-04 17:03 45.88342 20.26591 36091 ft 424 kts 338°
2026-05-04 17:04 45.99247 20.19928 36094 ft 425 kts 338°
2026-05-04 17:05 46.04882 20.17930 35761 ft 422 kts
2026-05-04 17:05 46.10767 20.18202 35266 ft 423 kts
2026-05-04 17:06 46.16644 20.18491 34769 ft 421 kts
2026-05-04 17:06 46.19564 20.18629 34534 ft 419 kts
2026-05-04 17:07 46.25351 20.18893 34058 ft 414 kts
2026-05-04 17:07 46.26321 20.18939 33963 ft 413 kts
2026-05-04 17:07 46.31077 20.19163 33506 ft 410 kts
2026-05-04 17:07 46.33925 20.19296 33237 ft 409 kts
2026-05-04 17:08 46.35842 20.19387 33056 ft 408 kts
2026-05-04 17:08 46.41451 20.19651 32534 ft 405 kts
2026-05-04 17:08 46.44263 20.19782 32272 ft 403 kts
2026-05-04 17:09 46.47061 20.19912 32013 ft 402 kts
2026-05-04 17:09 46.49852 20.20041 31756 ft 401 kts
2026-05-04 17:09 46.52634 20.20169 31497 ft 399 kts
2026-05-04 17:10 46.58173 20.20431 30993 ft 397 kts
2026-05-04 17:10 46.66423 20.20813 30271 ft 394 kts
2026-05-04 17:11 46.69161 20.20941 30005 ft 393 kts
2026-05-04 17:11 46.71890 20.21071 29719 ft 392 kts
2026-05-04 17:11 46.77318 20.21337 29153 ft 389 kts
2026-05-04 17:12 46.80018 20.21464 28866 ft 387 kts
2026-05-04 17:12 46.85383 20.21720 28325 ft 385 kts
2026-05-04 17:13 46.93270 20.20966 27353 ft 377 kts 337°
2026-05-04 17:14 46.98946 20.13220 26004 ft 375 kts 311°
2026-05-04 17:14 47.00620 20.10297 25583 ft 373 kts 311°
2026-05-04 17:14 47.03998 20.04564 24291 ft 382 kts 316°
2026-05-04 17:15 47.05923 20.01781 23269 ft 395 kts 316°
2026-05-04 17:15 47.09892 19.96025 21701 ft 402 kts 316°
2026-05-04 17:16 47.13824 19.90275 20642 ft 395 kts 316°
2026-05-04 17:16 47.19598 19.81812 19190 ft 387 kts 316°
2026-05-04 17:17 47.21499 19.79023 18661 ft 385 kts 315°
2026-05-04 17:17 47.27042 19.70883 17670 ft 361 kts 315°
2026-05-04 17:18 47.28811 19.68279 17162 ft 359 kts 315°
2026-05-04 17:18 47.32321 19.63147 16321 ft 350 kts 315°
2026-05-04 17:19 47.35587 19.58393 16034 ft 311 kts 314°
2026-05-04 17:19 47.38476 19.53825 15129 ft 301 kts 311°
2026-05-04 17:20 47.41245 19.49305 14106 ft 297 kts 311°
2026-05-04 17:20 47.44004 19.44831 13048 ft 292 kts 311°
2026-05-04 17:20 47.45391 19.42595 12505 ft 291 kts 311°
2026-05-04 17:21 47.48113 19.38267 11508 ft 289 kts 311°
2026-05-04 17:21 47.50850 19.33969 10843 ft 286 kts 311°
2026-05-04 17:22 47.52207 19.31830 10529 ft 285 kts 311°
2026-05-04 17:22 47.53559 19.29692 10205 ft 284 kts 311°
2026-05-04 17:23 47.57593 19.23353 9177 ft 280 kts 311°
2026-05-04 17:23 47.58930 19.21264 8851 ft 278 kts 311°
2026-05-04 17:23 47.61582 19.17133 8225 ft 274 kts 311°
2026-05-04 17:24 47.62897 19.15101 7916 ft 272 kts 310°
2026-05-04 17:24 47.66792 19.09060 6933 ft 268 kts 310°
2026-05-04 17:25 47.68087 19.07064 6609 ft 267 kts 311°
2026-05-04 17:25 47.70648 19.03115 5927 ft 265 kts 311°
2026-05-04 17:26 47.72975 18.98957 5316 ft 255 kts 288°
2026-05-04 17:26 47.71600 18.92501 4583 ft 218 kts 226°
2026-05-04 17:27 47.69597 18.89217 4089 ft 211 kts 217°
2026-05-04 17:27 47.66828 18.88270 4003 ft 211 kts 173°
2026-05-04 17:28 47.64288 18.90419 4003 ft 219 kts 136°
2026-05-04 17:29 47.61234 18.95437 4007 ft 219 kts 135°
2026-05-04 17:29 47.58205 19.00390 4023 ft 204 kts 136°
2026-05-04 17:30 47.55440 19.04899 3504 ft 194 kts 136°
2026-05-04 17:31 47.53636 19.07837 3001 ft 192 kts 136°
2026-05-04 17:31 47.51098 19.11972 2276 ft 162 kts 137°
2026-05-04 17:32 47.49604 19.14394 1855 ft 157 kts 136°
2026-05-04 17:33 47.47454 19.17890 1242 ft 150 kts 135°
2026-05-04 17:33 47.46750 19.19036 1016 ft 149 kts 136°
2026-05-04 17:34 47.44673 19.22407 466 ft 146 kts 135°
2026-05-04 17:34 47.44061 19.23389 455 ft 109 kts 133°
2026-05-04 17:35 47.43642 19.24404 457 ft 19 kts 110°
2026-05-04 17:35 47.43481 19.24728 457 ft 20 kts 132°
2026-05-04 17:35 47.43390 19.24877 456 ft 21 kts 133°
2026-05-04 17:36 47.43290 19.25038 457 ft 22 kts 133°
2026-05-04 17:36 47.43238 19.25210 457 ft 17 kts 79°
2026-05-04 17:36 47.43308 19.25342 457 ft 16 kts 40°
2026-05-04 17:36 47.43363 19.25413 457 ft 10 kts 41°
2026-05-04 17:37 47.43417 19.25486 457 ft 11 kts 42°
2026-05-04 17:37 47.43461 19.25544 457 ft 7 kts 41°
2026-05-04 17:37 47.43500 19.25595 457 ft 8 kts 41°
2026-05-04 17:37 47.43544 19.25660 457 ft 9 kts 59°
2026-05-04 17:38 47.43538 19.25723 457 ft 6 kts 121°
2026-05-04 17:38 47.43505 19.25778 457 ft 8 kts 131°
2026-05-04 17:38 47.43498 19.25844 457 ft 6 kts 64°
2026-05-04 17:38 47.43521 19.25857 457 ft 3 kts 350°
2026-05-04 17:39 47.43552 19.25820 456 ft 0 kts 314°